Tracking 25689 objects as of 7-Jul-2022
HD Live streaming from Space Station
objects crossing your sky now

FENGYUN 1C DEB

Track FENGYUN 1C DEB now!
10-day predictions


NORAD ID: 31993
Int'l Code: 1999-025CPW
Perigee: 847.3 km
Apogee: 1,517.3 km
Inclination: 99.2 °
Period: 108.9 minutes
Semi major axis: 7553 km
RCS: 0.0118 m2 (small)
Launch date: May 10, 1999
Source: People's Republic of China (PRC)
Launch site: Taiyaun Space Center, China (TSC)

Note: This is SATELLITE DEBRIS
aabbcc
Your satellite tracking list
Your tracking list is empty




NASA's NSSDC Master Catalog

Two Line Element Set (TLE):
1 31993U 99025CPW 22187.53805744  .00000761  00000-0  11415-2 0  9994
2 31993  99.2376 280.7564 0443559 294.8323  60.7290 13.22503171723197
Source of the keplerian elements: AFSPC